When you browse on this site, cookies collect data to enhance your experience and personalize the content and advertising you see.
Visit our Privacy Policy to learn more. By continuing to use the site, you agree to this use of cookies and data.
  • In United Kingdom
  • List of Countries
  • For 7 days
  • Water Temperature
  • Satellite Maps
  • Weather Map
  • Weather Widgets
  • user-avatar
    Login

    Hourly Weather Emona

    Today, 13 December, Thursday

    Time Temperature Precipitation Wind Pressure Humidity
    00:00 +1°C° 0 mm 3 mps 765 mmHg 79%
    01:00 +1°C° 0 mm 3 mps 765 mmHg 78%
    02:00 +1°C° 0 mm 3 mps 764 mmHg 77%
    03:00 +1°C° 0 mm 3 mps 765 mmHg 76%
    04:00 +1°C° 0 mm 3 mps 765 mmHg 76%
    05:00 0°C° 0 mm 3 mps 765 mmHg 76%
    06:00 0°C° 0 mm 3 mps 765 mmHg 76%
    07:00 0°C° 0 mm 3 mps 765 mmHg 76%
    08:00 0°C° 0 mm 3 mps 765 mmHg 76%
    09:00 +2°C° 0 mm 3 mps 765 mmHg 70%
    10:00 +3°C° 0 mm 4 mps 765 mmHg 63%
    11:00 +5°C° 0 mm 4 mps 765 mmHg 56%
    12:00 +5°C° 0 mm 3 mps 764 mmHg 55%
    13:00 +7°C° 0 mm 3 mps 764 mmHg 53%
    14:00 +7°C° 0 mm 3 mps 764 mmHg 52%
    15:00 +5°C° 0 mm 3 mps 764 mmHg 58%
    16:00 +5°C° 0 mm 2 mps 764 mmHg 64%
    17:00 +4°C° 0 mm 2 mps 764 mmHg 70%
    18:00 +4°C° 0 mm 2 mps 764 mmHg 71%
    19:00 +5°C° 0 mm 1 mps 764 mmHg 72%
    20:00 +4°C° 0 mm 1 mps 764 mmHg 74%
    21:00 +4°C° 0 mm 1 mps 764 mmHg 74%
    22:00 +4°C° 0 mm 1 mps 764 mmHg 75%
    23:00 +4°C° 0 mm 1 mps 764 mmHg 75%

    Tomorrow, 14 December, Friday

    Time Temperature Precipitation Wind Pressure Humidity
    00:00 +4°C° 0 mm 1 mps 764 mmHg 76%
    01:00 +4°C° 0 mm 1 mps 764 mmHg 76%
    02:00 +4°C° 0 mm 1 mps 764 mmHg 77%
    03:00 +4°C° 0 mm 1 mps 764 mmHg 78%
    04:00 +4°C° 0 mm 1 mps 764 mmHg 79%
    05:00 +3°C° 0 mm 0 mps 764 mmHg 80%
    06:00 +4°C° 0 mm 1 mps 764 mmHg 81%
    07:00 +4°C° 0 mm 1 mps 765 mmHg 82%
    08:00 +4°C° 0 mm 1 mps 765 mmHg 84%
    09:00 +5°C° 0 mm 1 mps 765 mmHg 80%
    10:00 +6°C° 0 mm 1 mps 765 mmHg 75%
    11:00 +8°C° 0 mm 1 mps 765 mmHg 71%
    12:00 +7°C° 0.1 mm 2 mps 765 mmHg 72%
    13:00 +7°C° 0.1 mm 2 mps 765 mmHg 73%
    14:00 +8°C° 0.1 mm 2 mps 765 mmHg 74%
    15:00 +7°C° 0.1 mm 2 mps 765 mmHg 78%
    16:00 +7°C° 0.1 mm 2 mps 765 mmHg 82%
    17:00 +6°C° 0.1 mm 2 mps 765 mmHg 86%
    18:00 +5°C° 0.1 mm 3 mps 765 mmHg 87%
    19:00 +5°C° 0.1 mm 3 mps 765 mmHg 88%
    20:00 +5°C° 0.1 mm 3 mps 765 mmHg 89%
    21:00 +5°C° 0.3 mm 3 mps 765 mmHg 90%
    22:00 +5°C° 0.3 mm 3 mps 765 mmHg 91%
    23:00 +5°C° 0.3 mm 3 mps 765 mmHg 92%

    Day after tomorrow, 15 December, Saturday

    Time Temperature Precipitation Wind Pressure Humidity
    00:00 +7°C° 0.3 mm 3 mps 765 mmHg 93%
    01:00 +7°C° 0.3 mm 3 mps 764 mmHg 94%
    02:00 +7°C° 0.3 mm 3 mps 764 mmHg 94%
    03:00 +7°C° 0.5 mm 2 mps 764 mmHg 95%
    04:00 +7°C° 0.5 mm 2 mps 763 mmHg 95%
    05:00 +8°C° 0.5 mm 2 mps 763 mmHg 96%
    06:00 +8°C° 0.3 mm 2 mps 763 mmHg 96%
    07:00 +8°C° 0.3 mm 2 mps 763 mmHg 96%
    08:00 +8°C° 0.3 mm 2 mps 763 mmHg 96%
    09:00 +9°C° 0.1 mm 2 mps 763 mmHg 94%
    10:00 +10°C° 0.1 mm 2 mps 763 mmHg 92%
    11:00 +12°C° 0.1 mm 2 mps 763 mmHg 89%
    12:00 +12°C° 0 mm 2 mps 763 mmHg 88%
    13:00 +13°C° 0 mm 2 mps 762 mmHg 87%
    14:00 +13°C° 0 mm 2 mps 762 mmHg 86%
    15:00 +13°C° 0 mm 2 mps 762 mmHg 88%
    16:00 +12°C° 0 mm 2 mps 762 mmHg 91%
    17:00 +12°C° 0 mm 2 mps 762 mmHg 93%
    18:00 +12°C° 0 mm 2 mps 762 mmHg 93%
    19:00 +10°C° 0 mm 2 mps 762 mmHg 93%
    20:00 +10°C° 0 mm 3 mps 762 mmHg 93%
    21:00 +10°C° 0.1 mm 2 mps 761 mmHg 92%
    22:00 +10°C° 0.1 mm 2 mps 761 mmHg 91%
    23:00 +10°C° 0.1 mm 2 mps 761 mmHg 90%

    16 December, Sunday

    Time Temperature Precipitation Wind Pressure Humidity
    00:00 +10°C° 0 mm 2 mps 761 mmHg 90%
    01:00 +10°C° 0 mm 2 mps 761 mmHg 89%
    02:00 +10°C° 0 mm 2 mps 760 mmHg 88%
    03:00 +10°C° 0 mm 2 mps 760 mmHg 88%
    04:00 +10°C° 0 mm 1 mps 760 mmHg 88%
    05:00 +10°C° 0 mm 1 mps 760 mmHg 88%
    06:00 +10°C° 0 mm 1 mps 760 mmHg 89%
    07:00 +10°C° 0 mm 1 mps 760 mmHg 89%
    08:00 +11°C° 0 mm 1 mps 760 mmHg 89%
    09:00 +11°C° 0 mm 1 mps 760 mmHg 87%
    10:00 +12°C° 0 mm 1 mps 760 mmHg 84%
    11:00 +13°C° 0 mm 1 mps 760 mmHg 81%
    12:00 +13°C° 0.1 mm 1 mps 759 mmHg 80%
    13:00 +14°C° 0.1 mm 2 mps 759 mmHg 80%
    14:00 +14°C° 0.1 mm 2 mps 759 mmHg 79%
    15:00 +13°C° 0.1 mm 2 mps 759 mmHg 82%
    16:00 +10°C° 0.1 mm 3 mps 759 mmHg 84%
    17:00 +9°C° 0.1 mm 3 mps 759 mmHg 87%
    18:00 +7°C° 0.1 mm 4 mps 760 mmHg 86%
    19:00 +7°C° 0.1 mm 5 mps 760 mmHg 85%
    20:00 +5°C° 0.1 mm 6 mps 761 mmHg 84%
    21:00 +4°C° 0 mm 6 mps 761 mmHg 83%
    22:00 +4°C° 0 mm 6 mps 761 mmHg 82%
    23:00 +3°C° 0 mm 6 mps 762 mmHg 81%

    17 December, Monday

    Time Temperature Precipitation Wind Pressure Humidity
    00:00 +3°C° 0 mm 6 mps 762 mmHg 81%
    01:00 +3°C° 0 mm 5 mps 762 mmHg 81%
    02:00 +2°C° 0 mm 5 mps 762 mmHg 81%
    03:00 +2°C° 0.1 mm 5 mps 762 mmHg 81%
    04:00 +2°C° 0.1 mm 5 mps 762 mmHg 81%
    05:00 +2°C° 0.1 mm 5 mps 762 mmHg 81%
    06:00 +3°C° 0.2 mm 4 mps 762 mmHg 81%
    07:00 +3°C° 0.2 mm 4 mps 762 mmHg 81%
    08:00 +3°C° 0.2 mm 4 mps 762 mmHg 81%
    09:00 +3°C° 0.1 mm 4 mps 763 mmHg 81%
    10:00 +3°C° 0.1 mm 4 mps 763 mmHg 80%
    11:00 +4°C° 0.1 mm 4 mps 763 mmHg 79%
    12:00 +4°C° 0.1 mm 4 mps 763 mmHg 79%
    13:00 +4°C° 0.1 mm 4 mps 763 mmHg 78%
    14:00 +5°C° 0.1 mm 4 mps 762 mmHg 77%
    15:00 +4°C° 0.2 mm 4 mps 763 mmHg 79%
    16:00 +4°C° 0.2 mm 4 mps 763 mmHg 80%
    17:00 +4°C° 0.2 mm 4 mps 763 mmHg 82%
    18:00 +4°C° 0.2 mm 4 mps 763 mmHg 82%
    19:00 +4°C° 0.2 mm 4 mps 764 mmHg 83%
    20:00 +3°C° 0.2 mm 3 mps 764 mmHg 83%
    21:00 +3°C° 0.3 mm 3 mps 764 mmHg 83%
    22:00 +3°C° 0.3 mm 3 mps 764 mmHg 83%
    23:00 +3°C° 0.3 mm 3 mps 764 mmHg 82%

    18 December, Tuesday

    Time Temperature Precipitation Wind Pressure Humidity
    00:00 +3°C° 0.3 mm 3 mps 765 mmHg 81%
    01:00 +2°C° 0.3 mm 3 mps 765 mmHg 80%
    02:00 +2°C° 0.3 mm 3 mps 765 mmHg 79%
    03:00 +1°C° 0.1 mm 3 mps 765 mmHg 77%
    04:00 +1°C° 0.1 mm 3 mps 765 mmHg 76%
    05:00 +1°C° 0.1 mm 3 mps 765 mmHg 74%
    06:00 +1°C° 0 mm 3 mps 765 mmHg 73%
    07:00 +1°C° 0 mm 3 mps 765 mmHg 71%
    08:00 0°C° 0 mm 3 mps 766 mmHg 70%
    09:00 +2°C° 0 mm 3 mps 766 mmHg 65%
    10:00 +3°C° 0 mm 3 mps 766 mmHg 61%
    11:00 +5°C° 0 mm 2 mps 766 mmHg 56%
    12:00 +6°C° 0 mm 2 mps 766 mmHg 56%
    13:00 +6°C° 0 mm 2 mps 765 mmHg 55%
    14:00 +7°C° 0 mm 2 mps 765 mmHg 55%
    15:00 +6°C° 0 mm 2 mps 765 mmHg 61%
    16:00 +5°C° 0 mm 2 mps 765 mmHg 68%
    17:00 +4°C° 0 mm 2 mps 765 mmHg 74%
    18:00 +3°C° 0 mm 3 mps 765 mmHg 76%
    19:00 +2°C° 0 mm 3 mps 765 mmHg 79%
    20:00 +2°C° 0 mm 3 mps 765 mmHg 82%
    21:00 +2°C° 0 mm 3 mps 765 mmHg 83%
    22:00 +2°C° 0 mm 3 mps 765 mmHg 84%
    23:00 0°C° 0 mm 4 mps 765 mmHg 85%
    Show more